Regional Weather Roundup
Issued by NWS

Home | Current Version | Previous Version | Graphics & Text | Print | Product List | Glossary On
Versions: 1 2 3 4 5 6 7 8 9 10 11 12 13 14 15 16 17 18 19 20 21 22 23 24 25 26 27 28 29 30 31 32 33 34 35 36 37 38 39 40 41 42 43 44 45 46 47 48 49 50
000
ASUS45 KCYS 040710
RWRWY

WYOMING REGIONAL WEATHER ROUNDUP
NATIONAL WEATHER SERVICE CHEYENNE WY
1200 AM MST WED MAR 04 2015

NOTE:  "FAIR" INDICATES FEW OR NO CLOUDS BELOW 12,000 FEET
WITH NO SIGNIFICANT WEATHER AND/OR OBSTRUCTIONS TO VISIBILITY.

WYZ001-040800-
YELLOWSTONE NATIONAL PARK

CITY           SKY/WX    TMP DP  RH WIND       PRES   REMARKS
LK YELLOWSTONE   N/A     -9 -14  78 CALM      29.90R
W YELLOWSTONE  NOT AVBL

$$
WYZ002>013-054>058-071-098>099-040800-
NORTHERN WYOMING

CITY           SKY/WX    TMP DP  RH WIND       PRES   REMARKS
JACKSON        CLOUDY    10   3  72 CALM      29.92S
CODY           FAIR       5   0  78 SW5       30.02S WCI  -4
GREYBULL       FAIR       6  -1  73 CALM      30.10R
WORLAND        FAIR       4  -2  76 S10       30.08S WCI -11
SHERIDAN       FAIR       1 -10  60 W7        30.06F WCI -12
BUFFALO        FAIR       2  -9  60 S8        30.00S WCI -12
GILLETTE       FAIR       1  -7  68 W9        30.03R WCI -14
HULETT         FAIR       7   0  72 SW9       30.01S WCI  -7
NEWCASTLE      FAIR       3  -2  78 NW8       30.05R WCI -10

$$
WYZ014>020-022>026-101>103-040800-
CENTRAL WYOMING

CITY           SKY/WX    TMP DP  RH WIND       PRES   REMARKS
BIG PINEY      FAIR      12   2  64 NE10      29.87F WCI  -1
PINEDALE       FAIR       0  -9  65 NW8       29.88F WCI -15
DUBOIS         CLOUDY     0  -4  85 SE3       29.88R
LANDER         FAIR       5  -3  69 SW9       30.01S WCI  -9
RIVERTON       FAIR       1  -4  79 MISG      30.03R
CASPER         FAIR      -6 -11  79 SW5       30.01R WCI -17
DOUGLAS        FAIR      -2  -6  83 CALM      30.03S

$$
WYZ021-027>030-104>119-040800-
SOUTHERN WYOMING

CITY           SKY/WX    TMP DP  RH WIND       PRES   REMARKS
EVANSTON       MOCLDY    10   5  80 SW8       29.91S WCI  -2
FORT BRIDGER   FAIR      14   9  81 W12       29.93S WCI   1
ROCK SPRINGS   FAIR      -1  -5  82 E13       29.91R WCI -19
DIXON          CLOUDY    12   8  85 CALM      29.94R
RAWLINS        LGT SNOW   4  -1  80 N7        29.92R WCI  -8
SARATOGA       LGT SNOW   5   3  92 CALM      29.89R
LARAMIE        FLURRIES   4   0  83 CALM      29.83R
CHEYENNE       LGT SNOW   7   2  80 N8        29.91R WCI  -6
TORRINGTON     FAIR       8   3  80 NW10      30.06R WCI  -6
PINE BLUFFS    LGT SNOW  12   9  85 N8        29.99R WCI   1

$$



USA.gov is the U.S. government's official web portal to all federal, state and local government web resources and services.